Weather History for KPAE - October, 2012

Change the Weather History Date:

Tuesday, October 2, 2012

  Actual Average Record
Temperature  
Mean Temperature 55 °F -  
Max Temperature 60 °F 64 °F 80 °F (1987)
Min Temperature 50 °F 46 °F 34 °F (1968)
Degree Days  
Heating Degree Days 10    
Growing Degree Days 5 (Base 50)    
Moisture  
Dew Point 39 °F    
Average Humidity 63    
Maximum Humidity 93    
Minimum Humidity 33    
Precipitation  
Precipitation 0.00 in - - ()
Sea Level Pressure  
Sea Level Pressure 30.21 in    
Wind  
Wind Speed 6 mph (North)    
Max Wind Speed 8 mph    
Max Gust Speed 17 mph    
Visibility 10 miles    
Events      
Averages and records for this station are not official NWS values.
T = Trace of Precipitation, MM = Missing Value Source: NWS Daily Summary

Daily Weather History Graph

Daily Weather History Graph

Search for Another Location

Airport or City:

Trip Planner

Search our weather history database for the weather conditions in past years. The results will help you decide how hot, cold, wet, or windy it might be!

Date:

Astronomy

Oct. 02, 2012 Rise Set
Actual Time 7:10 AM PDT 6:45 PM PDT
Civil Twilight 6:39 AM PDT 7:15 PM PDT
Nautical Twilight 6:03 AM PDT 7:51 PM PDT
Astronomical Twilight 5:27 AM PDT 8:28 PM PDT
Moon 7:45 PM PDT (10/2) 9:57 AM PDT (10/2)
Length of Visible Light 12h 36m
Length of Day
11h 34m
Waning Gibbous, 93% of the Moon is Illuminated
Oct 2
Waning Gibbous
Oct 8
Last Quarter
Oct 15
New
Oct 21
First Quarter
Oct 29
Full

Hourly Weather History & Observations

Time (PDT) Temp. Dew Point Humidity Pressure Visibility Wind Dir Wind Speed Gust Speed Precip Events Conditions
12:53 AM 51.1 °F 46.9 °F 86% 30.17 in 10.0 mi North 5.8 mph - N/A   Scattered Clouds
1:53 AM 50.0 °F 46.9 °F 89% 30.17 in 10.0 mi North 5.8 mph - N/A   Partly Cloudy
2:53 AM 50.0 °F 48.0 °F 93% 30.17 in 9.0 mi North 8.1 mph - N/A   Clear
3:53 AM 50.0 °F 46.9 °F 89% 30.18 in 10.0 mi North 4.6 mph - N/A   Clear
4:48 AM 50.0 °F 46.4 °F 87% 30.19 in 10.0 mi North 4.6 mph - N/A   Mostly Cloudy
4:53 AM 50.0 °F 48.0 °F 93% 30.19 in 10.0 mi North 4.6 mph - N/A   Mostly Cloudy
5:53 AM 52.0 °F 43.0 °F 71% 30.20 in 10.0 mi NNE 3.5 mph - N/A   Overcast
6:53 AM 52.0 °F 39.0 °F 61% 30.20 in 10.0 mi NNE 5.8 mph - N/A   Overcast
7:53 AM 52.0 °F 37.0 °F 57% 30.21 in 10.0 mi NNE 4.6 mph - N/A   Overcast
8:53 AM 55.9 °F 34.0 °F 44% 30.21 in 10.0 mi NE 6.9 mph - N/A   Overcast
9:53 AM 55.0 °F 30.9 °F 40% 30.21 in 10.0 mi NE 8.1 mph - N/A   Mostly Cloudy
10:53 AM 55.9 °F 30.0 °F 37% 30.21 in 10.0 mi NNE 8.1 mph - N/A   Mostly Cloudy
11:53 AM 57.0 °F 30.0 °F 36% 30.21 in 10.0 mi North 8.1 mph - N/A   Overcast
12:53 PM 60.1 °F 30.9 °F 33% 30.20 in 10.0 mi NNE 8.1 mph 16.1 mph N/A   Scattered Clouds
1:53 PM 60.1 °F 32.0 °F 35% 30.19 in 10.0 mi Variable 6.9 mph - N/A   Partly Cloudy
3:53 PM 59.0 °F 35.1 °F 41% 30.20 in 10.0 mi NNW 8.1 mph 17.3 mph N/A   Clear
4:53 PM 57.0 °F 37.9 °F 49% 30.21 in 10.0 mi North 8.1 mph 16.1 mph N/A   Clear
5:53 PM 55.9 °F 37.9 °F 51% 30.21 in 10.0 mi NNW 6.9 mph - N/A   Clear
6:53 PM 53.1 °F 39.0 °F 59% 30.22 in 10.0 mi NNW 5.8 mph - N/A   Clear
7:53 PM 51.1 °F 41.0 °F 68% 30.23 in 10.0 mi NNW 6.9 mph - N/A   Clear
8:53 PM 52.0 °F 39.9 °F 63% 30.25 in 10.0 mi North 6.9 mph - N/A   Clear
9:53 PM 51.1 °F 41.0 °F 68% 30.25 in 10.0 mi NNW 6.9 mph - N/A   Clear
10:53 PM 50.0 °F 43.0 °F 77% 30.28 in 10.0 mi North 6.9 mph - N/A   Clear
11:53 PM 50.0 °F 43.0 °F 77% 30.29 in 10.0 mi North 6.9 mph - N/A   Clear